Weather History for KJST - January, 2013

Change the Weather History Date:

Thursday, January 31, 2013

  Actual Average Record
Temperature  
Mean Temperature 32 °F 25 °F  
Max Temperature 46 °F 32 °F 69 °F (1916)
Min Temperature 17 °F 18 °F -8 °F (1977)
Degree Days  
Heating Degree Days 34 40  
Month to date heating degree days 1233  
Since 1 July heating degree days 3817  
Cooling Degree Days 0 0  
Month to date cooling degree days 0  
Year to date cooling degree days 0  
Moisture  
Dew Point 19 °F    
Average Humidity 78    
Maximum Humidity 100    
Minimum Humidity 57    
Precipitation  
Precipitation 0.12 in 0.09 in 0.94 in (1949)
Month to date precipitation 2.88  
Year to date precipitation 2.88  
Sea Level Pressure  
Sea Level Pressure 29.48 in    
Wind  
Wind Speed 22 mph (West)    
Max Wind Speed 36 mph    
Max Gust Speed 51 mph    
Visibility 4 miles    
Events Fog , Rain , Snow    
T = Trace of Precipitation, MM = Missing Value Source: NWS Daily Summary

Daily Weather History Graph

Daily Weather History Graph

Search for Another Location

Airport or City:

Trip Planner

Search our weather history database for the weather conditions in past years. The results will help you decide how hot, cold, wet, or windy it might be!

Date:

Astronomy

Jan. 31, 2013 Rise Set
Actual Time 7:25 AM EST 5:32 PM EST
Civil Twilight 6:56 AM EST 6:01 PM EST
Nautical Twilight 6:23 AM EST 6:34 PM EST
Astronomical Twilight 5:51 AM EST 7:06 PM EST
Moon 10:34 PM EST (1/31) 9:23 AM EST (1/31)
Length of Visible Light 11h 05m
Length of Day
10h 07m
Waning Gibbous, 80% of the Moon is Illuminated
Jan 31
Waning Gibbous
Feb 3
Last Quarter
Feb 10
New
Feb 17
First Quarter
Feb 25
Full

Hourly Weather History & Observations

Time (EST) Temp. Windchill Dew Point Humidity Pressure Visibility Wind Dir Wind Speed Gust Speed Precip Events Conditions
12:30 AM 46.4 °F 39.8 °F 44.6 °F 93% 29.23 in 10.0 mi WSW 16.1 mph 23.0 mph 0.05 in Rain Light Rain
12:39 AM 46.4 °F 38.7 °F 42.8 °F 87% 29.23 in 9.0 mi West 20.7 mph 33.4 mph 0.06 in Rain Light Rain
12:50 AM 44.6 °F 34.9 °F 41.0 °F 87% 29.23 in 7.0 mi WSW 28.8 mph 36.8 mph 0.08 in Rain Rain
12:54 AM 44.1 °F 34.2 °F 39.9 °F 85% 29.23 in 9.0 mi WSW 28.8 mph 43.7 mph 0.08 in Rain Light Rain
1:23 AM 42.8 °F 34.5 °F 37.4 °F 81% 29.18 in 10.0 mi WSW 18.4 mph 27.6 mph 0.00 in Rain Light Rain
1:33 AM 42.8 °F 34.3 °F 37.4 °F 81% 29.19 in 10.0 mi WSW 19.6 mph 28.8 mph 0.00 in Rain Light Rain
1:54 AM 42.1 °F 33.3 °F 37.0 °F 82% 29.21 in 9.0 mi WSW 19.6 mph 32.2 mph 0.01 in Rain Light Rain
2:04 AM 39.2 °F 28.3 °F 35.6 °F 87% 29.24 in 7.0 mi West 25.3 mph 50.6 mph 0.00 in Rain Light Rain
2:12 AM 37.4 °F 26.9 °F 33.8 °F 87% 29.24 in 10.0 mi West 20.7 mph 44.9 mph 0.01 in Rain Light Rain
2:33 AM 35.6 °F 24.0 °F 30.2 °F 81% 29.24 in 10.0 mi West 23.0 mph 38.0 mph 0.01 in Rain Light Rain
2:54 AM 34.0 °F 21.5 °F 28.9 °F 82% 29.28 in 6.0 mi West 24.2 mph 32.2 mph 0.01 in Snow Light Snow
3:29 AM 32.0 °F 18.9 °F 28.4 °F 87% 29.27 in 2.0 mi WSW 24.2 mph 36.8 mph 0.00 in Snow Light Snow
3:32 AM 32.0 °F 18.6 °F 28.4 °F 87% 29.29 in 1.2 mi WSW 25.3 mph 34.5 mph 0.00 in Snow Light Snow
3:35 AM 32.0 °F 19.2 °F 28.4 °F 87% 29.29 in 0.8 mi West 23.0 mph 34.5 mph 0.00 in Snow Light Snow
3:44 AM 30.2 °F 17.8 °F 30.2 °F 100% 29.29 in 1.0 mi West 19.6 mph 29.9 mph 0.01 in Snow Light Snow
3:54 AM 30.0 °F 15.4 °F 27.0 °F 88% 29.33 in 1.0 mi West 27.6 mph 44.9 mph 0.01 in Snow Light Snow
4:00 AM 30.2 °F 14.9 °F 26.6 °F 86% 29.30 in 3.0 mi West 31.1 mph 43.7 mph 0.00 in Snow Light Snow
4:13 AM 30.2 °F 16.8 °F 24.8 °F 80% 29.31 in 10.0 mi West 23.0 mph 40.3 mph 0.00 in   Overcast
4:54 AM 28.9 °F 14.8 °F 21.9 °F 75% 29.35 in 10.0 mi West 24.2 mph 36.8 mph 0.00 in   Overcast
5:25 AM 28.4 °F - 21.2 °F 74% 29.35 in 1.0 mi North - - 0.00 in Snow Light Snow
5:31 AM 26.6 °F 12.0 °F 24.8 °F 93% 29.34 in 0.2 mi West 23.0 mph 38.0 mph 0.00 in Fog , Snow Snow
5:33 AM 26.6 °F 13.1 °F 24.8 °F 93% 29.35 in 0.2 mi West 19.6 mph 38.0 mph 0.01 in Fog , Snow Snow
5:41 AM 26.6 °F 13.8 °F 24.8 °F 93% 29.35 in 1.0 mi West 17.3 mph 28.8 mph 0.01 in Snow Light Snow
5:48 AM 26.6 °F 12.4 °F 24.8 °F 93% 29.36 in 3.0 mi West 21.9 mph 28.8 mph 0.01 in Snow Light Snow
5:54 AM 27.0 °F 14.3 °F 24.1 °F 89% 29.39 in 4.0 mi West 17.3 mph 28.8 mph 0.01 in Snow Light Snow
6:10 AM 26.6 °F 10.3 °F 23.0 °F 86% 29.36 in 7.0 mi West 29.9 mph 42.6 mph 0.00 in Snow Light Snow
6:23 AM 26.6 °F 12.4 °F 23.0 °F 86% 29.38 in 2.5 mi West 21.9 mph 36.8 mph 0.00 in Snow Light Snow
6:28 AM 26.6 °F 11.1 °F 21.2 °F 80% 29.39 in 3.0 mi West 26.5 mph 36.8 mph 0.00 in Snow Light Snow
6:54 AM 26.1 °F 10.1 °F 21.0 °F 81% 29.46 in 7.0 mi West 27.6 mph 41.4 mph 0.00 in Snow Light Snow
7:54 AM 26.1 °F 9.8 °F 17.1 °F 69% 29.49 in 7.0 mi West 28.8 mph 41.4 mph 0.00 in Snow Light Snow
8:27 AM 24.8 °F 9.6 °F 17.6 °F 74% 29.46 in 2.5 mi West 23.0 mph 43.7 mph 0.00 in Snow Light Snow
8:36 AM 24.8 °F 9.6 °F 17.6 °F 74% 29.47 in 2.0 mi West 23.0 mph 36.8 mph 0.00 in Snow Light Snow
8:46 AM 24.8 °F 9.0 °F 15.8 °F 69% 29.47 in 6.0 mi West 25.3 mph 39.1 mph 0.00 in Snow Light Snow
8:54 AM 25.0 °F 12.2 °F 16.0 °F 69% 29.52 in 4.0 mi West 16.1 mph 36.8 mph 0.00 in Snow Light Snow
8:59 AM 24.8 °F 9.6 °F 17.6 °F 74% 29.47 in 1.8 mi West 23.0 mph 29.9 mph 0.00 in Snow Light Snow
9:14 AM 23.0 °F 8.3 °F 19.4 °F 86% 29.47 in 0.5 mi West 19.6 mph 28.8 mph 0.00 in Fog , Snow Snow
9:20 AM 23.0 °F 8.3 °F 19.4 °F 86% 29.48 in 0.2 mi West 19.6 mph 29.9 mph 0.00 in Fog , Snow Snow
9:33 AM 21.2 °F 7.3 °F 19.4 °F 93% 29.48 in 0.2 mi West 16.1 mph 27.6 mph 0.00 in Fog , Snow Snow
9:50 AM 21.2 °F 5.2 °F 17.6 °F 86% 29.49 in 0.8 mi West 21.9 mph 34.5 mph 0.00 in Snow Light Snow
9:54 AM 21.9 °F 5.5 °F 17.1 °F 82% 29.54 in 1.0 mi West 24.2 mph 41.4 mph 0.00 in Snow Light Snow
10:10 AM 23.0 °F 10.1 °F 15.8 °F 74% 29.50 in 4.0 mi West 15.0 mph 34.5 mph 0.00 in Snow Light Snow
10:21 AM 23.0 °F 6.0 °F 14.0 °F 68% 29.51 in 1.8 mi West 27.6 mph 42.6 mph 0.00 in Snow Light Snow
10:32 AM 23.0 °F 6.9 °F 15.8 °F 74% 29.51 in 3.0 mi West 24.2 mph 33.4 mph 0.00 in Snow Light Snow
10:44 AM 21.2 °F 4.5 °F 15.8 °F 80% 29.52 in 1.8 mi West 24.2 mph 39.1 mph 0.00 in Snow Light Snow
10:54 AM 21.9 °F 6.5 °F 16.0 °F 78% 29.57 in 0.8 mi West 20.7 mph 29.9 mph 0.00 in Snow Light Snow
11:01 AM 21.2 °F 6.0 °F 17.6 °F 86% 29.53 in 0.2 mi West 19.6 mph 34.5 mph 0.00 in Fog , Snow Snow
11:11 AM 21.2 °F 3.0 °F 14.0 °F 74% 29.55 in 0.2 mi West 29.9 mph 39.1 mph 0.00 in Snow Heavy Snow
11:19 AM 19.4 °F 3.2 °F 15.8 °F 86% 29.56 in 0.2 mi West 20.7 mph 41.4 mph 0.00 in Snow Heavy Snow
11:24 AM 19.4 °F 1.8 °F 12.2 °F 74% 29.56 in 0.2 mi West 25.3 mph 38.0 mph 0.00 in Snow Heavy Snow
11:42 AM 19.4 °F 4.1 °F 12.2 °F 74% 29.56 in 1.0 mi West 18.4 mph 38.0 mph 0.00 in Snow Light Snow
11:54 AM 19.9 °F 3.5 °F 12.0 °F 71% 29.62 in 1.2 mi West 21.9 mph 35.7 mph 0.00 in Snow Light Snow
12:35 PM 21.2 °F 5.2 °F 12.2 °F 68% 29.57 in 0.5 mi West 21.9 mph 43.7 mph 0.00 in Snow Snow
12:43 PM 21.2 °F 6.0 °F 12.2 °F 68% 29.56 in 2.5 mi West 19.6 mph 36.8 mph 0.00 in Snow Light Snow
12:48 PM 21.2 °F 4.5 °F 12.2 °F 68% 29.56 in 5.0 mi West 24.2 mph 34.5 mph 0.00 in Snow Light Snow
12:54 PM 21.0 °F 5.7 °F 12.0 °F 68% 29.62 in 3.0 mi West 19.6 mph 41.4 mph 0.00 in Snow Light Snow
1:10 PM 21.2 °F 4.9 °F 12.2 °F 68% 29.56 in 1.8 mi West 23.0 mph 48.3 mph 0.00 in Snow Light Snow
1:17 PM 21.2 °F 5.2 °F 12.2 °F 68% 29.56 in 3.0 mi West 21.9 mph 39.1 mph 0.00 in Snow Light Snow
1:32 PM 21.2 °F 6.0 °F 12.2 °F 68% 29.57 in 2.5 mi West 19.6 mph 43.7 mph 0.00 in Snow Light Snow
1:51 PM 21.2 °F 4.9 °F 12.2 °F 68% 29.56 in 1.8 mi West 23.0 mph 33.4 mph 0.00 in Snow Light Snow
1:54 PM 21.0 °F 2.7 °F 12.9 °F 71% 29.62 in 1.2 mi West 29.9 mph 42.6 mph 0.00 in Snow Light Snow
2:08 PM 21.2 °F 4.9 °F 12.2 °F 68% 29.56 in 3.0 mi West 23.0 mph 32.2 mph 0.00 in Snow Light Snow
2:15 PM 21.2 °F 4.5 °F 12.2 °F 68% 29.57 in 7.0 mi West 24.2 mph 42.6 mph 0.00 in Snow Light Snow
2:42 PM 21.2 °F 1.7 °F 10.4 °F 63% 29.57 in 1.8 mi West 35.7 mph 50.6 mph 0.00 in Snow Blowing Snow
2:54 PM 21.0 °F 3.0 °F 10.9 °F 65% 29.66 in 2.0 mi West 28.8 mph 42.6 mph 0.00 in Snow Light Snow
2:57 PM 19.4 °F 1.4 °F 10.4 °F 68% 29.59 in 3.0 mi West 26.5 mph 46.0 mph 0.00 in Snow Light Snow
3:54 PM 19.9 °F 1.8 °F 7.0 °F 57% 29.70 in 10.0 mi West 27.6 mph 46.0 mph 0.00 in   Overcast
4:11 PM 19.4 °F 0.5 °F 10.4 °F 68% 29.64 in 1.5 mi West 29.9 mph 40.3 mph 0.00 in Snow Light Snow
4:21 PM 19.4 °F 2.1 °F 12.2 °F 74% 29.65 in 1.0 mi West 24.2 mph 36.8 mph 0.00 in Snow Light Snow
4:31 PM 17.6 °F -0.6 °F 12.2 °F 79% 29.65 in 0.8 mi West 25.3 mph 38.0 mph 0.00 in Snow Light Snow
4:37 PM 17.6 °F -1.3 °F 10.4 °F 73% 29.66 in 2.5 mi West 27.6 mph 38.0 mph 0.00 in Snow Light Snow
4:44 PM 17.6 °F -0.3 °F 10.4 °F 73% 29.66 in 8.0 mi West 24.2 mph 40.3 mph 0.00 in   Overcast
4:54 PM 18.0 °F 0.2 °F 9.0 °F 68% 29.75 in 7.0 mi West 24.2 mph 33.4 mph 0.00 in Snow Light Snow
5:54 PM 18.0 °F 2.2 °F 8.1 °F 65% 29.78 in 9.0 mi West 18.4 mph 34.5 mph 0.00 in   Overcast
6:54 PM 18.0 °F 4.8 °F 8.1 °F 65% 29.80 in 10.0 mi West 12.7 mph 23.0 mph N/A   Overcast
9:54 PM 19.0 °F 4.0 °F 10.9 °F 71% 29.81 in 2.5 mi WSW 17.3 mph 28.8 mph 0.00 in Snow Light Snow
10:04 PM 19.4 °F 5.0 °F 10.4 °F 68% 29.71 in 5.0 mi West 16.1 mph 26.5 mph 0.00 in Snow Light Snow
10:54 PM 19.0 °F 5.0 °F 10.9 °F 71% 29.81 in 9.0 mi West 15.0 mph 26.5 mph 0.00 in   Overcast
11:58 PM 17.6 °F 6.4 °F 14.0 °F 86% 29.70 in 1.8 mi West 9.2 mph - 0.00 in Snow Light Snow